TimeCDT,TemperatureF,Dew PointF,Humidity,Sea Level PressureIn,VisibilityMPH,Wind Direction,Wind SpeedMPH,Gust SpeedMPH,PrecipitationIn,Events,Conditions,WindDirDegrees,DateUTC
12:52 AM,75.9,64.9,69,30.00,10.0,North,6.9,-,N/A,,Clear,360,2013-07-27 05:52:00
1:52 AM,73.9,64.9,73,29.99,10.0,NNE,5.8,-,N/A,,Clear,20,2013-07-27 06:52:00
2:52 AM,73.0,64.9,76,30.00,10.0,North,4.6,-,N/A,,Clear,10,2013-07-27 07:52:00
3:52 AM,72.0,64.9,78,30.00,10.0,North,3.5,-,N/A,,Clear,10,2013-07-27 08:52:00
4:52 AM,69.1,64.0,84,30.00,10.0,South,3.5,-,N/A,,Clear,180,2013-07-27 09:52:00
5:52 AM,70.0,64.0,81,29.99,10.0,NNW,3.5,-,N/A,,Partly Cloudy,340,2013-07-27 10:52:00
6:52 AM,69.1,64.0,84,30.01,10.0,NNW,4.6,-,N/A,,Clear,340,2013-07-27 11:52:00
7:52 AM,70.0,64.9,84,30.01,10.0,North,5.8,-,N/A,,Partly Cloudy,10,2013-07-27 12:52:00
8:52 AM,73.0,66.0,79,30.03,10.0,NNE,6.9,16.1,N/A,,Scattered Clouds,30,2013-07-27 13:52:00
9:52 AM,75.9,64.9,69,30.03,10.0,NNE,11.5,-,N/A,,Partly Cloudy,20,2013-07-27 14:52:00
10:52 AM,79.0,64.0,60,30.03,10.0,NNE,8.1,18.4,N/A,,Clear,30,2013-07-27 15:52:00
11:52 AM,82.9,63.0,51,30.03,10.0,NE,5.8,-,N/A,,Clear,40,2013-07-27 16:52:00
12:52 PM,84.0,63.0,49,30.02,10.0,Variable,4.6,-,N/A,,Clear,0,2013-07-27 17:52:00
1:52 PM,84.9,59.0,41,30.00,10.0,ENE,9.2,-,N/A,,Clear,70,2013-07-27 18:52:00
2:52 PM,88.0,55.0,32,29.98,10.0,ESE,6.9,-,N/A,,Clear,120,2013-07-27 19:52:00
3:52 PM,90.0,54.0,29,29.96,10.0,ENE,11.5,17.3,N/A,,Clear,60,2013-07-27 20:52:00
4:52 PM,89.1,53.1,29,29.93,10.0,ENE,12.7,-,N/A,,Clear,60,2013-07-27 21:52:00
5:52 PM,89.1,53.1,29,29.91,10.0,ENE,9.2,-,N/A,,Clear,60,2013-07-27 22:52:00
6:52 PM,87.1,55.0,33,29.90,10.0,East,8.1,-,N/A,,Clear,80,2013-07-27 23:52:00
7:52 PM,84.0,53.1,34,29.90,10.0,ESE,5.8,-,N/A,,Clear,110,2013-07-28 00:52:00
8:52 PM,79.0,55.9,45,29.89,10.0,SE,6.9,-,N/A,,Clear,130,2013-07-28 01:52:00
9:52 PM,77.0,55.0,47,29.93,10.0,East,4.6,-,N/A,,Clear,100,2013-07-28 02:52:00
10:52 PM,77.0,55.0,47,29.95,10.0,ESE,8.1,-,N/A,,Clear,110,2013-07-28 03:52:00
11:52 PM,73.9,57.0,55,29.96,10.0,ESE,8.1,-,N/A,,Clear,120,2013-07-28 04:52:00